| time (UTC) | temp C | wind direction | speed KPH | gust KPH | rain 1hr cm | rain 24hr cm | rain mn cm | humidity % | barometer mb |
| 20260505183017 | 12 | 170 | 32.2 | 51.5 | 0.00 | 0.05 | 0.00 | 86 | 1003.8 |
| 20260505181513 | 12 | 169 | 25.7 | 53.1 | 0.00 | 0.05 | 0.00 | 85 | 1003.9 |
| 20260505180009 | 12 | 150 | 27.4 | 48.3 | 0.00 | 0.05 | 0.00 | 85 | 1004.1 |
| 20260505174508 | 12 | 159 | 20.9 | 41.8 | 0.00 | 0.05 | 0.00 | 84 | 1004.3 |
| 20260505173006 | 12 | 152 | 24.1 | 40.2 | 0.00 | 0.05 | 0.00 | 85 | 1004.6 |
| 20260505171504 | 12 | 161 | 22.5 | 35.4 | 0.00 | 0.05 | 0.00 | 85 | 1004.9 |
| 20260505170003 | 11 | 143 | 25.7 | 40.2 | 0.00 | 0.05 | 0.00 | 87 | 1005.0 |
| 20260505164505 | 11 | 160 | 24.1 | 38.6 | 0.00 | 0.05 | 0.00 | 88 | 1005.0 |
| 20260505163000 | 11 | 149 | 20.9 | 40.2 | 0.00 | 0.05 | 0.00 | 88 | 1005.5 |
| 20260505161501 | 11 | 186 | 27.4 | 51.5 | 0.00 | 0.05 | 0.00 | 88 | 1005.9 |
| 20260505153109 | 11 | 146 | 24.1 | 41.8 | 0.00 | 0.05 | 0.00 | 86 | 1005.3 |
| 20260505151555 | 11 | 162 | 30.6 | 51.5 | 0.00 | 0.05 | 0.00 | 86 | 1005.7 |
| 20260505124536 | 10 | 190 | 14.5 | 29.0 | 0.00 | 0.05 | 0.00 | 86 | 1005.9 |
| 20260505123025 | 10 | 150 | 19.3 | 30.6 | 0.00 | 0.05 | 0.00 | 86 | 1006.0 |
| 20260505121521 | 10 | 140 | 24.1 | 37.0 | 0.00 | 0.05 | 0.00 | 87 | 1006.1 |
| 20260505120017 | 10 | 148 | 22.5 | 32.2 | 0.00 | 0.05 | 0.00 | 87 | 1006.2 |
| 20260505114515 | 10 | 143 | 17.7 | 25.7 | 0.00 | 0.05 | 0.00 | 86 | 1006.1 |
| 20260505113012 | 10 | 155 | 9.7 | 19.3 | 0.00 | 0.05 | 0.00 | 86 | 1006.2 |
| 20260505111509 | 9 | 122 | 8.0 | 17.7 | 0.00 | 0.05 | 0.00 | 87 | 1006.1 |
| 20260505101555 | 8 | 155 | 11.3 | 19.3 | 0.00 | 0.05 | 0.00 | 89 | 1006.3 |
| 20260505100050 | 8 | 158 | 9.7 | 17.7 | 0.00 | 0.05 | 0.00 | 89 | 1006.1 |
| 20260505094546 | 8 | 146 | 9.7 | 16.1 | 0.00 | 0.05 | 0.00 | 88 | 1006.2 |
| 20260505093050 | 8 | 150 | 12.9 | 20.9 | 0.00 | 0.05 | 0.00 | 86 | 1006.0 |
| 20260505091543 | 8 | 158 | 11.3 | 16.1 | 0.00 | 0.05 | 0.00 | 86 | 1006.0 |
| 20260505090043 | 8 | 141 | 12.9 | 17.7 | 0.00 | 0.05 | 0.00 | 86 | 1006.0 |
| 20260505084547 | 8 | 117 | 8.0 | 16.1 | 0.00 | 0.05 | 0.00 | 85 | 1005.9 |
| 20260505083047 | 8 | 118 | 6.4 | 9.7 | 0.00 | 0.05 | 0.00 | 85 | 1006.0 |
| 20260505081541 | 8 | 143 | 6.4 | 9.7 | 0.00 | 0.05 | 0.00 | 85 | 1005.9 |
| 20260505080036 | 9 | 124 | 6.4 | 11.3 | 0.00 | 0.05 | 0.00 | 84 | 1005.9 |
| 20260505074536 | 9 | 123 | 6.4 | 9.7 | 0.00 | 0.05 | 0.00 | 84 | 1005.9 |
| 20260505073037 | 9 | 169 | 9.7 | 17.7 | 0.00 | 0.05 | 0.00 | 84 | 1005.9 |
| 20260505071535 | 9 | 158 | 8.0 | 20.9 | 0.00 | 0.05 | 0.00 | 83 | 1006.0 |
| 20260505070041 | 9 | 167 | 6.4 | 19.3 | 0.00 | 0.05 | 0.00 | 83 | 1005.9 |
| 20260505064532 | 9 | 186 | 14.5 | 24.1 | 0.00 | 0.05 | 0.00 | 83 | 1005.8 |
| 20260505063034 | 9 | 187 | 16.1 | 24.1 | 0.00 | 0.05 | 0.00 | 83 | 1005.7 |
| 20260505061529 | 10 | 171 | 14.5 | 24.1 | 0.00 | 0.05 | 0.00 | 83 | 1005.7 |
| 20260505060035 | 9 | 160 | 8.0 | 14.5 | 0.00 | 0.05 | 0.00 | 83 | 1005.6 |
| 20260505054526 | 9 | 177 | 12.9 | 22.5 | 0.00 | 0.05 | 0.00 | 83 | 1005.5 |
| 20260505053024 | 9 | 119 | 3.2 | 8.0 | 0.00 | 0.05 | 0.00 | 84 | 1005.5 |
| 20260505051523 | 9 | 117 | 4.8 | 9.7 | 0.00 | 0.05 | 0.00 | 83 | 1005.3 |
| 20260505041515 | 10 | 146 | 6.4 | 11.3 | 0.00 | 0.05 | 0.00 | 83 | 1005.2 |
| 20260505040013 | 9 | 151 | 6.4 | 14.5 | 0.00 | 0.05 | 0.00 | 84 | 1005.2 |
| 20260505034512 | 8 | 163 | 6.4 | 11.3 | 0.00 | 0.05 | 0.05 | 85 | 1005.2 |
| 20260505033013 | 8 | 158 | 8.0 | 11.3 | 0.00 | 0.05 | 0.05 | 85 | 1005.2 |
| 20260505031515 | 8 | 171 | 6.4 | 11.3 | 0.00 | 0.05 | 0.05 | 85 | 1005.1 |
| 20260505030012 | 8 | 162 | 8.0 | 11.3 | 0.00 | 0.05 | 0.05 | 85 | 1005.1 |
| 20260505024511 | 8 | 160 | 8.0 | 12.9 | 0.00 | 0.05 | 0.05 | 84 | 1005.2 |
| 20260505023011 | 8 | 167 | 9.7 | 14.5 | 0.00 | 0.05 | 0.05 | 84 | 1005.2 |
| 20260505021510 | 8 | 159 | 9.7 | 16.1 | 0.00 | 0.05 | 0.05 | 84 | 1005.1 |
| 20260505020012 | 8 | 158 | 6.4 | 12.9 | 0.00 | 0.05 | 0.05 | 84 | 1005.0 |
| 20260505014509 | 8 | 140 | 9.7 | 16.1 | 0.00 | 0.05 | 0.05 | 84 | 1005.0 |
| 20260505013008 | 8 | 154 | 9.7 | 17.7 | 0.00 | 0.05 | 0.05 | 83 | 1004.9 |
| 20260505011508 | 8 | 148 | 8.0 | 14.5 | 0.00 | 0.05 | 0.05 | 83 | 1004.9 |
| 20260505010014 | 9 | 156 | 9.7 | 14.5 | 0.00 | 0.05 | 0.05 | 82 | 1004.8 |
| 20260505004507 | 9 | 162 | 9.7 | 17.7 | 0.00 | 0.05 | 0.05 | 81 | 1004.6 |
| 20260505003006 | 9 | 171 | 9.7 | 16.1 | 0.00 | 0.05 | 0.05 | 82 | 1004.4 |
| 20260505001509 | 9 | 168 | 9.7 | 17.7 | 0.00 | 0.05 | 0.05 | 82 | 1004.2 |
| 20260505000005 | 10 | 165 | 6.4 | 12.9 | 0.00 | 0.05 | 0.05 | 81 | 1004.2 |
| 20260504234506 | 10 | 165 | 8.0 | 12.9 | 0.00 | 0.05 | 0.05 | 79 | 1003.9 |
| 20260504233005 | 11 | 153 | 8.0 | 14.5 | 0.00 | 0.05 | 0.05 | 77 | 1003.5 |
| 20260504231508 | 12 | 144 | 6.4 | 9.7 | 0.00 | 0.05 | 0.05 | 75 | 1003.3 |
| 20260504230006 | 12 | 173 | 4.8 | 9.7 | 0.00 | 0.05 | 0.05 | 74 | 1003.2 |
| 20260504224510 | 12 | 125 | 3.2 | 8.0 | 0.00 | 0.05 | 0.05 | 74 | 1003.0 |
| 20260504223004 | 12 | 116 | 4.8 | 8.0 | 0.00 | 0.05 | 0.05 | 75 | 1002.9 |
| 20260504221507 | 11 | 195 | 4.8 | 11.3 | 0.00 | 0.05 | 0.05 | 76 | 1002.9 |
| 20260504220003 | 11 | 200 | 9.7 | 16.1 | 0.00 | 0.05 | 0.05 | 75 | 1002.9 |
| 20260504214506 | 12 | 198 | 12.9 | 19.3 | 0.00 | 0.05 | 0.05 | 71 | 1002.8 |
| 20260504213003 | 12 | 193 | 11.3 | 19.3 | 0.00 | 0.05 | 0.05 | 72 | 1002.7 |
| 20260504211502 | 12 | 207 | 11.3 | 24.1 | 0.00 | 0.05 | 0.05 | 71 | 1002.7 |
| 20260504210002 | 12 | 179 | 14.5 | 25.7 | 0.00 | 0.05 | 0.05 | 69 | 1002.8 |
| 20260504204501 | 13 | 217 | 9.7 | 20.9 | 0.00 | 0.05 | 0.05 | 73 | 1002.8 |
| 20260504203002 | 13 | 176 | 12.9 | 25.7 | 0.00 | 0.05 | 0.05 | 73 | 1002.5 |
| 20260504201600 | 13 | 177 | 9.7 | 19.3 | 0.00 | 0.05 | 0.05 | 75 | 1002.5 |
| 20260504200104 | 13 | 189 | 14.5 | 20.9 | 0.00 | 0.05 | 0.05 | 77 | 1002.5 |
| 20260504194605 | 13 | 180 | 12.9 | 19.3 | 0.00 | 0.08 | 0.05 | 77 | 1002.6 |
| 20260504193057 | 12 | 172 | 9.7 | 16.1 | 0.00 | 0.08 | 0.05 | 81 | 1002.6 |
| 20260504191609 | 11 | 146 | 6.4 | 9.7 | 0.03 | 0.08 | 0.05 | 86 | 1002.7 |
| 20260504190053 | 10 | 167 | 3.2 | 8.0 | 0.05 | 0.08 | 0.05 | 91 | 1002.9 |
| 20260504184552 | 8 | 152 | 4.8 | 6.4 | 0.05 | 0.15 | 0.05 | 91 | 1003.2 |